Regional Weather Roundup
Issued by NWS

Home | Current Version | Previous Version | Text Only | Print | Product List | Glossary On
Versions: 1 2 3 4 5 6 7 8 9 10 11 12 13 14 15 16 17 18 19 20 21 22 23 24 25 26 27 28 29 30 31 32 33 34 35 36 37 38 39 40 41 42 43 44 45 46 47 48 49 50
000
ASUS44 KOUN 241910
RWROK

WEATHER ROUNDUP FOR OKLAHOMA
NATIONAL WEATHER SERVICE NORMAN OK
200 PM CDT TUE MAY 24 2016

NOTE: "FAIR" INDICATES FEW OR NO CLOUDS BELOW 12,000 FEET WITH NO
      SIGNIFICANT WEATHER AND/OR OBSTRUCTIONS TO VISIBILITY.

OKZ001>007-009>012-014-015-017-242000-
NORTHWEST OKLAHOMA AND THE PANHANDLE

CITY           SKY/WX    TMP DP  RH WIND       PRES   REMARKS
GAGE           PTSUNNY   87  68  52 S13G25    29.85F HX  90
GUYMON         SUNNY     85  46  25 SW13      29.84F
$$

OKZ016-021>023-033>039-044-045-242000-
SOUTHWEST OKLAHOMA

CITY           SKY/WX    TMP DP  RH WIND       PRES   REMARKS
LAWTON/REGL    PTSUNNY   86  72  62 S20       29.88F HX  92
LAWTON/FT SILL PTSUNNY   85  75  71 S16       29.88S HX  94
FREDERICK      MOSUNNY   88  72  58 S20G25    29.85F HX  94
CLINTON        PTSUNNY   88  69  53 S18G29    29.89F HX  92
HOBART         PTSUNNY   85  72  65 S21       29.88F HX  91
ALTUS AFB      PTSUNNY   86  72  62 S18G26    29.86F HX  91
$$

OKZ018>020-024>031-242000-
CENTRAL OKLAHOMA

CITY           SKY/WX    TMP DP  RH WIND       PRES   REMARKS
OKLAHOMA CITY  PTSUNNY   86  73  65 S14G25    29.89S HX  93
OKC/WILEY POST MOSUNNY   87  72  60 S16       29.88F HX  93
OKC/TINKER AFB MOSUNNY   87  72  60 S17G24    29.89F HX  93
STILLWATER     CLOUDY    85  72  65 SE16      29.86F HX  91
GUTHRIE        MOSUNNY   87  69  54 SW13      29.87F HX  91
$$

OKZ008-013-054>072-242000-
NORTHEAST OKLAHOMA

CITY           SKY/WX    TMP DP  RH WIND       PRES   REMARKS
TULSA          PTSUNNY   85  67  54 S9        29.91F
TULSA/JONES    MOSUNNY   86  65  49 S9        29.92F
PONCA CITY     SUNNY     82  71  69 SE10G20   29.88F
BARTLESVILLE   PTSUNNY   83  69  62 VRB3      29.93F
MUSKOGEE       MOSUNNY   83  69  62 S10G20    29.96F
$$

OKZ032-040>043-046>053-073>077-242000-
SOUTH CENTRAL/SOUTHEAST OKLAHOMA

CITY           SKY/WX    TMP DP  RH WIND       PRES   REMARKS
ARDMORE/DWNTWN PTSUNNY   81  70  69 S13       29.93S
MCALESTER      CLOUDY    83  72  69 S8        29.95F
$$




USA.gov is the U.S. government's official web portal to all federal, state and local government web resources and services.